This is the latest recevied weather packets stored in our database for station/object SQ3MKP-13. If no packets are shown the sender has not sent any weather packets the latest 10 day(s).
| Time | Temp. | Humidity | Pressure | Rain* | Wind** | Luminosity | Snow |
|---|---|---|---|---|---|---|---|
| 1777023370 | 11.67° C | 71% | 1006.5 hPa | - | - | 677 W/m² | - |
| 1777023069 | 11.11° C | 71% | 1006.4 hPa | - | - | 648 W/m² | - |
| 1777022767 | 11.11° C | 71% | 1006.4 hPa | - | - | 261 W/m² | - |
| 1777022467 | 11.11° C | 71% | 1006.5 hPa | - | - | 261 W/m² | - |
| 1777022166 | 11.67° C | 69% | 1006.4 hPa | - | - | 660 W/m² | - |
| 1777021865 | 11.11° C | 70% | 1006.5 hPa | - | - | 624 W/m² | - |
| 1777021563 | 11.11° C | 72% | 1006.4 hPa | - | - | 617 W/m² | - |
| 1777021262 | 11.11° C | 72% | 1006.4 hPa | - | - | 617 W/m² | - |
| 1777020961 | 11.67° C | 70% | 1006.4 hPa | - | - | 444 W/m² | - |
| 1777020660 | 11.67° C | 70% | 1006.4 hPa | - | - | 444 W/m² | - |
| 1777020359 | 11.11° C | 71% | 1006.4 hPa | - | - | 674 W/m² | - |
| 1777020058 | 11.11° C | 70% | 1006.3 hPa | - | - | 229 W/m² | - |
| 1777019757 | 11.11° C | 71% | 1006.4 hPa | - | - | 612 W/m² | - |
| 1777019456 | 11.67° C | 70% | 1006.3 hPa | - | - | 615 W/m² | - |
| 1777019155 | 11.67° C | 70% | 1006.2 hPa | - | - | 590 W/m² | - |
| 1777018854 | 11.67° C | 70% | 1006.1 hPa | - | - | 640 W/m² | - |
| 1777018553 | 11.67° C | 69% | 1006.1 hPa | - | - | 609 W/m² | - |
| 1777018252 | 12.22° C | 69% | 1006.2 hPa | - | - | 540 W/m² | - |
| 1777017951 | 11.67° C | 71% | 1006.1 hPa | - | - | 499 W/m² | - |
| 1777017650 | 11.67° C | 71% | 1006.1 hPa | - | - | 499 W/m² | - |
| 1777017349 | 11.67° C | 68% | 1006 hPa | - | - | 458 W/m² | - |
| 1777017048 | 11.67° C | 69% | 1006 hPa | - | - | 450 W/m² | - |
| 1777016747 | 11.11° C | 70% | 1006 hPa | - | - | 433 W/m² | - |
| 1777016445 | 11.11° C | 70% | 1006 hPa | - | - | 433 W/m² | - |
| 1777016145 | 11.11° C | 71% | 1005.9 hPa | - | - | 419 W/m² | - |
* Rain since midnight (hover to see other rain measurements)
** Current wind speed in m/s (hover to see current wind gust speed)